Flag for Lithuania Weather past 2 weeks in Kaunas, Lithuania

Now
43 °F

Clear.


Feels Like: 38 °F
Forecast: 36 / 45 °F
Wind: 8 mph from Northwest

Location: Kaunas

Current Time: Apr 18, 2015 at 11:36:52 PM

Latest Report: Apr 18, 2015 at 11:20 PM


Visibility: 10 mi

Pressure: 29.92 "Hg

Humidity: 61%

Dew point: 30 °F

Location of KaunasLocation

Historic Weather in Kaunas — Graph

°F

Kaunas temperature yesterday

Maximum temperature yesterday: 48 °F (at 12:20 PM)
Minimum temperature yesterday: 36 °F (at 11:50 PM)
Average temperature yesterday: 41 °F

Past Weeks' High & Low Weather Summary

 TemperatureHumidityPressure
High66 °F (Apr 11, 2:50 PM)93% (Apr 4, 6:20 AM)30.36 "Hg (Apr 4, 6:20 AM)
Low28 °F (Apr 6, 4:20 AM)14% (Apr 14, 4:20 PM)29.36 "Hg (Apr 16, 4:50 AM)
Average42 °F67%29.95 "Hg
* Reported Apr 3 10:20 PM — Apr 18 10:20 PM, Kaunas, Weather by CustomWeather, © 2015

Note: Actual official high and low records may vary slightly from our data, if they occured in-between our weather recording intervals... More about our weather records

Advertising

Kaunas weather history for previous 24 hours

 ConditionsComfort  
Time TempWeatherWind HumidityBarometerVisibility
10:20 PM
Sat, Apr 18
41 °FOvercast.6 mph61%29.92 "HgN/A
9:50 PM41 °FMostly cloudy.6 mph61%29.92 "HgN/A
9:20 PM41 °FSunny.3 mph61%29.92 "Hg10 mi
8:50 PM41 °FSunny.3 mph61%29.92 "Hg10 mi
8:20 PM43 °FSunny.5 mph57%29.92 "Hg10 mi
7:50 PM43 °FSunny.6 mph57%29.92 "Hg10 mi
7:20 PM45 °FPassing clouds.7 mph53%29.92 "HgN/A
6:50 PM45 °FPassing clouds.8 mph49%29.92 "HgN/A
6:20 PM45 °FMore clouds than sun.8 mph49%29.92 "HgN/A
5:50 PM45 °FMostly cloudy.12 mph49%29.92 "HgN/A
5:20 PM46 °FPartly sunny.12 mph43%29.92 "HgN/A
4:50 PM45 °FPartly sunny.12 mph49%29.92 "HgN/A
4:20 PM45 °FBroken clouds.10 mph53%29.92 "HgN/A
3:50 PM45 °FBroken clouds.13 mph53%29.92 "HgN/A
3:20 PM46 °FBroken clouds.12 mph46%29.92 "HgN/A
2:50 PM45 °FScattered showers. Broken clouds.14 mph57%29.92 "HgN/A
2:20 PM48 °FBroken clouds.10 mph46%29.92 "HgN/A
1:50 PM45 °FSprinkles. Broken clouds.13 mph49%29.92 "HgN/A
1:20 PM46 °FBroken clouds.9 mph57%29.92 "HgN/A
12:50 PM43 °FBroken clouds.8 mph71%29.92 "HgN/A
12:20 PM41 °FMostly cloudy.10 mph76%29.95 "HgN/A
11:50 AM39 °FMostly cloudy.9 mph81%29.92 "HgN/A
11:20 AM39 °FMostly cloudy.9 mph81%29.92 "HgN/A
10:50 AM39 °FMostly cloudy.10 mph81%29.92 "HgN/A
10:20 AM39 °FMostly cloudy.6 mph75%29.92 "HgN/A
9:50 AM37 °FMostly cloudy.7 mph87%29.92 "HgN/A
9:20 AM37 °FLow clouds.6 mph87%29.89 "HgN/A
8:50 AM37 °FLow clouds.6 mph87%29.89 "HgN/A
8:20 AM37 °FLow clouds.6 mph81%29.89 "HgN/A
7:50 AM36 °FLight rain. Low clouds.5 mph93%29.89 "HgN/A
7:20 AM36 °FLow clouds.5 mph87%29.89 "HgN/A
6:50 AM36 °FLow clouds.5 mph87%29.89 "HgN/A
6:20 AM36 °FLow clouds.6 mph87%29.86 "HgN/A
5:50 AM36 °FLow clouds.7 mph87%29.86 "HgN/A
5:20 AM36 °FLow clouds.5 mph87%29.86 "HgN/A
4:50 AM36 °FLow clouds.3 mph87%29.86 "Hg6 mi
4:20 AM36 °FLow clouds.5 mph87%29.86 "Hg6 mi
3:50 AM34 °FLow clouds.5 mph93%29.86 "HgN/A
3:20 AM34 °FLow clouds.5 mph93%29.86 "HgN/A
2:50 AM34 °FChilly.5 mph87%29.83 "HgN/A
2:20 AM36 °FMostly cloudy.5 mph87%29.83 "HgN/A
2:03 AM36 °FPassing clouds.3 mph87%29.83 "HgN/A
1:20 AM37 °FMostly cloudy.6 mph87%29.83 "Hg4 mi
12:51 AM36 °FLight rain. Mostly cloudy.6 mph87%29.83 "Hg6 mi
12:20 AM36 °FSprinkles. Overcast.1 mph93%29.80 "HgN/A
11:50 PM
Fri, Apr 17
36 °FSprinkles. Mostly cloudy.7 mph87%29.80 "Hg6 mi
11:20 PM37 °FSprinkles. Mostly cloudy.6 mph87%29.80 "HgN/A
Weather by CustomWeather, © 2015

See weather overviewHow to use our weather pages